User: anonymous
Location: Minneapolis
(44.9800°N, 93.2640°W)
Time: 23:47:12
(UTC-05:00)
Language:

Iridium 96 - Orbit

View from above orbital plane
View from above orbital plane
View from above satellite
View from above satellite

Ground track
Ground track

The orbit data is extracted from the following two-line orbital elements,

1 27376U 02005E   14294.25131120  .00000887  00000-0  30964-3 0  6981
2 27376 086.4023 004.3103 0004734 084.8045 275.3691 14.34220357677091
Epoch (UTC): 21 October 2014 06:01:53
Eccentricity: 0.0004734
inclination: 86.4023°
perigee height: 774 km
apogee height: 781 km
right ascension of ascending node: 4.3103°
argument of perigee: 84.8045°
revolutions per day: 14.34220357
mean anomaly at epoch: 275.3691°
orbit number at epoch: 67709

The dashed part of the orbit path shows where the satellite is in the earth's shadow,  

DLR